FW1981 Weather Reports


Display with metric or nautical units.
time (UTC)temp
F
wind
direction
speed
MPH
gust
MPH
rain 1hr
in
rain 24hr
in
rain mn
in
humidity
%
barometer
mb
20260903022019 61 157 0.0 4.0 0.00 0.01 0.01 90 1024.1
20260903021511 61 162 1.0 4.0 0.00 0.01 0.01 90 1024.1
20260903021019 61 127 0.0 2.0 0.00 0.01 0.01 90 1024.1
20260903020511 61 127 0.0 2.0 0.00 0.01 0.01 90 1024.1
20260903020019 61 158 0.0 2.0 0.00 0.01 0.01 90 1024.2
20260903015513 61 193 0.0 1.0 0.00 0.01 0.01 90 1024.3
20260903015019 61 152 0.0 2.0 0.00 0.01 0.01 90 1024.2
20260903014518 61 153 0.0 2.0 0.00 0.01 0.01 90 1024.3
20260903014012 61 188 1.0 2.0 0.00 0.01 0.01 90 1024.3
20260903013519 61 184 0.0 2.0 0.00 0.01 0.01 90 1024.6
20260903013018 61 210 1.0 2.0 0.00 0.01 0.01 90 1024.5
20260903012523 61 218 1.0 3.0 0.00 0.01 0.01 90 1024.6
20260903012019 61 205 1.0 3.0 0.00 0.01 0.01 90 1024.6
20260903011523 61 226 1.0 2.0 0.00 0.01 0.01 90 1024.7
20260903011011 61 214 1.0 2.0 0.00 0.01 0.01 90 1024.6
20260903010519 61 207 1.0 2.0 0.00 0.01 0.01 90 1024.7
20260903010011 61 221 0.0 2.0 0.00 0.01 0.01 89 1024.7
20260903005519 61 232 0.0 2.0 0.00 0.01 0.01 89 1024.6
20260903005012 61 230 0.0 1.0 0.00 0.01 0.01 89 1024.6
20260903004519 61 224 0.0 1.0 0.00 0.01 0.01 89 1024.6
20260903004018 61 193 1.0 1.0 0.00 0.01 0.01 90 1024.5
20260903003512 61 172 0.0 1.0 0.00 0.01 0.01 90 1024.5
20260903003019 61 161 0.0 0.0 0.00 0.01 0.01 89 1024.6
20260903002524 61 160 0.0 1.0 0.00 0.01 0.01 88 1024.5
20260903002019 61 160 0.0 2.0 0.00 0.01 0.01 88 1024.6
20260903001529 61 173 0.0 2.0 0.00 0.01 0.01 88 1024.5
20260903001023 62 158 0.0 1.0 0.00 0.01 0.01 89 1024.5
20260903000519 62 203 0.0 1.0 0.00 0.01 0.01 89 1024.5
20260903000011 62 212 0.0 1.0 0.00 0.01 0.01 88 1024.6
20260902235520 62 203 1.0 2.0 0.00 0.01 0.01 89 1024.6
20260902235018 62 216 1.0 2.0 0.00 0.01 0.01 89 1024.5
20260902234511 62 142 1.0 2.0 0.00 0.01 0.01 88 1024.3
20260902234019 62 221 1.0 3.0 0.00 0.01 0.01 88 1024.2
20260902233518 62 195 1.0 3.0 0.00 0.01 0.01 88 1024.2
20260902233022 62 135 1.0 4.0 0.00 0.01 0.01 88 1024.1
20260902232519 62 143 2.0 4.0 0.00 0.01 0.01 88 1024.2
20260902232029 62 148 1.0 3.0 0.00 0.01 0.01 88 1024.2
20260902231524 62 172 1.0 3.0 0.00 0.01 0.01 88 1024.1
20260902231019 62 207 0.0 3.0 0.00 0.01 0.01 88 1024.2
20260902230522 62 158 1.0 3.0 0.00 0.01 0.01 88 1024.2
20260902230011 62 158 1.0 2.0 0.00 0.01 0.01 88 1024.1
20260902225519 62 184 1.0 2.0 0.00 0.01 0.01 87 1024.1
20260902225018 62 163 1.0 2.0 0.00 0.01 0.01 86 1024.0
20260902224511 62 198 0.0 1.0 0.00 0.01 0.01 86 1024.1
20260902224025 63 207 0.0 1.0 0.00 0.01 0.01 85 1024.1
20260902223518 63 200 0.0 1.0 0.00 0.01 0.01 85 1024.0
20260902223012 63 162 0.0 1.0 0.00 0.01 0.01 84 1024.0
20260902222524 63 146 0.0 1.0 0.00 0.01 0.01 84 1024.0
20260902222030 63 145 0.0 2.0 0.00 0.01 0.01 84 1024.1
20260902221512 63 145 1.0 2.0 0.00 0.01 0.01 83 1024.2
20260902221019 63 157 0.0 1.0 0.00 0.01 0.01 84 1024.1
20260902220529 64 158 0.0 2.0 0.00 0.01 0.01 83 1024.2
20260902220012 64 149 0.0 2.0 0.00 0.01 0.01 84 1024.2
20260902215530 64 152 0.0 2.0 0.00 0.03 0.01 84 1024.2
20260902215011 64 155 0.0 2.0 0.00 0.03 0.01 84 1024.2
20260902214520 64 195 1.0 4.0 0.00 0.03 0.01 84 1024.3
20260902214018 64 173 1.0 4.0 0.00 0.03 0.01 83 1024.2
20260902213511 64 148 1.0 5.0 0.00 0.03 0.01 84 1024.2
20260902213019 64 191 2.0 5.0 0.00 0.03 0.01 84 1024.4
20260902212523 64 186 2.0 6.0 0.00 0.03 0.01 85 1024.4
20260902212012 64 169 2.0 6.0 0.00 0.03 0.01 85 1024.5
20260902211520 65 196 2.0 4.0 0.00 0.03 0.01 85 1024.5
20260902211018 65 162 1.0 3.0 0.00 0.03 0.01 84 1024.5
20260902210512 65 181 1.0 6.0 0.00 0.03 0.01 83 1024.7
20260902210030 65 211 2.0 6.0 0.00 0.03 0.01 82 1024.7
20260902205519 65 138 3.0 6.0 0.00 0.03 0.01 83 1024.8
20260902205012 65 172 3.0 6.0 0.00 0.03 0.01 84 1024.7
20260902204520 65 155 3.0 5.0 0.00 0.03 0.01 84 1024.8
20260902204019 65 172 3.0 7.0 0.00 0.03 0.01 83 1024.7
20260902203523 65 105 3.0 7.0 0.00 0.03 0.01 83 1024.6
20260902203019 65 140 2.0 7.0 0.00 0.03 0.01 84 1024.6
20260902202518 65 141 3.0 7.0 0.00 0.03 0.01 83 1024.6
20260902202012 65 150 2.0 7.0 0.00 0.03 0.01 84 1024.6
20260902201520 65 189 3.0 7.0 0.00 0.03 0.01 83 1024.6
20260902201019 65 121 4.0 8.0 0.00 0.03 0.01 84 1024.6
20260902200523 65 134 3.0 8.0 0.00 0.03 0.01 85 1024.5
20260902200019 65 118 5.0 9.0 0.00 0.03 0.01 84 1024.6
20260902195519 65 148 5.0 9.0 0.00 0.03 0.01 84 1024.6
20260902195012 65 117 5.0 8.0 0.00 0.03 0.01 84 1024.6
20260902194521 65 124 5.0 8.0 0.00 0.03 0.01 84 1024.6
20260902194019 66 152 4.0 8.0 0.00 0.03 0.01 84 1024.6
20260902193512 65 120 5.0 8.0 0.00 0.03 0.01 83 1024.6
20260902193019 65 118 5.0 9.0 0.00 0.03 0.01 83 1024.7
20260902192518 66 122 5.0 9.0 0.00 0.03 0.01 83 1024.6
20260902192013 66 115 4.0 7.0 0.00 0.03 0.01 82 1024.7
20260902191531 66 112 3.0 8.0 0.00 0.03 0.01 79 1024.7
20260902191018 66 117 4.0 8.0 0.00 0.03 0.01 77 1024.5
20260902190523 67 111 3.0 6.0 0.00 0.03 0.01 75 1024.4
20260902190025 67 120 2.0 5.0 0.00 0.03 0.01 77 1024.3
20260902185519 67 120 2.0 5.0 0.00 0.03 0.01 77 1024.3
20260902185012 67 122 2.0 5.0 0.00 0.03 0.01 76 1024.3
20260902184524 68 141 2.0 6.0 0.00 0.03 0.01 75 1024.3
20260902184030 68 96 2.0 6.0 0.00 0.03 0.01 73 1024.3
20260902183512 68 72 3.0 6.0 0.00 0.03 0.01 72 1024.3
20260902183021 68 75 2.0 7.0 0.00 0.03 0.01 75 1024.4
20260902182519 68 127 3.0 7.0 0.00 0.03 0.01 76 1024.4
20260902182012 68 160 4.0 7.0 0.00 0.03 0.01 77 1024.4
20260902181520 68 110 3.0 7.0 0.00 0.03 0.01 77 1024.4
20260902181031 68 98 4.0 8.0 0.00 0.03 0.01 76 1024.4
20260902180512 68 108 4.0 8.0 0.00 0.03 0.01 76 1024.4
20260902180020 68 110 4.0 9.0 0.00 0.03 0.01 76 1024.5
20260902175518 68 160 3.0 10.0 0.00 0.03 0.01 76 1024.3
20260902175023 68 101 5.0 10.0 0.00 0.03 0.01 75 1024.3
20260902174524 68 120 5.0 10.0 0.00 0.03 0.01 74 1024.3
20260902174019 68 123 3.0 10.0 0.00 0.03 0.01 77 1024.4
20260902173512 68 149 5.0 12.0 0.00 0.03 0.01 75 1024.4
20260902173020 67 113 5.0 12.0 0.00 0.03 0.01 75 1024.3
20260902172519 67 99 7.0 12.0 0.00 0.03 0.01 75 1024.5
20260902172012 67 108 7.0 12.0 0.00 0.03 0.01 75 1024.5
20260902171520 67 136 7.0 10.0 0.00 0.03 0.01 76 1024.4
20260902171018 67 105 6.0 11.0 0.00 0.03 0.01 77 1024.4
20260902170513 67 115 7.0 11.0 0.00 0.03 0.01 76 1024.3
20260902170020 67 110 6.0 11.0 0.00 0.03 0.01 78 1024.3
20260902165520 67 232 6.0 11.0 0.00 0.03 0.01 76 1024.3
20260902165013 68 132 3.0 8.0 0.00 0.03 0.01 78 1024.4
20260902164520 67 131 6.0 8.0 0.00 0.03 0.01 78 1024.3
20260902164019 67 131 4.0 10.0 0.00 0.03 0.01 80 1024.4
20260902163512 67 112 5.0 12.0 0.00 0.03 0.01 80 1024.4
20260902163020 68 75 7.0 14.0 0.00 0.03 0.01 80 1024.4
20260902162519 69 190 8.0 14.0 0.00 0.03 0.01 78 1024.5
20260902162012 69 134 3.0 8.0 0.00 0.03 0.01 78 1024.4
20260902161525 68 154 3.0 8.0 0.00 0.03 0.01 78 1024.4
20260902161020 69 136 3.0 10.0 0.00 0.03 0.01 79 1024.3
20260902160513 68 141 5.0 10.0 0.00 0.03 0.01 78 1024.5
20260902160020 69 165 3.0 10.0 0.00 0.03 0.01 78 1024.5
20260902155530 68 96 3.0 10.0 0.00 0.03 0.01 78 1024.5
20260902155012 68 142 4.0 7.0 0.00 0.03 0.01 79 1024.5
20260902154520 68 93 3.0 7.0 0.00 0.03 0.01 81 1024.5
20260902154031 67 308 1.0 7.0 0.00 0.03 0.01 80 1024.5
20260902153513 67 64 3.0 8.0 0.00 0.03 0.01 81 1024.5
20260902153021 67 87 3.0 7.0 0.00 0.03 0.01 80 1024.5
20260902152519 66 67 4.0 6.0 0.00 0.03 0.01 79 1024.5
20260902152012 67 94 3.0 8.0 0.00 0.03 0.01 78 1024.5
20260902151521 66 146 4.0 8.0 0.00 0.03 0.01 79 1024.5
20260902151020 66 72 3.0 7.0 0.00 0.03 0.01 81 1024.5
20260902150512 66 56 3.0 7.0 0.00 0.03 0.01 80 1024.6
20260902150020 66 36 3.0 7.0 0.00 0.03 0.01 80 1024.5
20260902145519 66 120 2.0 6.0 0.00 0.03 0.01 81 1024.6
20260902145013 66 151 2.0 6.0 0.00 0.03 0.01 82 1024.5
20260902144531 66 103 2.0 7.0 0.00 0.03 0.01 82 1024.5
20260902144019 66 116 4.0 9.0 0.00 0.03 0.01 81 1024.5
20260902143513 65 79 5.0 9.0 0.00 0.03 0.01 82 1024.6
20260902143020 65 89 3.0 10.0 0.00 0.03 0.01 82 1024.5
20260902142519 65 95 3.0 10.0 0.00 0.03 0.01 83 1024.4
20260902142023 65 133 4.0 10.0 0.00 0.03 0.01 83 1024.4
20260902141520 65 116 3.0 11.0 0.00 0.03 0.01 83 1024.5
20260902141019 65 152 4.0 11.0 0.00 0.03 0.01 83 1024.5
20260902140524 65 54 4.0 10.0 0.00 0.03 0.01 83 1024.5
20260902140021 65 118 4.0 10.0 0.00 0.03 0.01 83 1024.5
20260902135519 64 102 3.0 9.0 0.00 0.03 0.01 84 1024.5
20260902135015 64 127 3.0 7.0 0.00 0.03 0.01 84 1024.4
20260902134520 64 144 4.0 8.0 0.00 0.03 0.01 83 1024.5
20260902134020 65 77 4.0 8.0 0.00 0.03 0.01 84 1024.4
20260902133524 64 87 2.0 8.0 0.00 0.03 0.01 84 1024.3
20260902133020 64 32 3.0 8.0 0.00 0.03 0.01 84 1024.3
20260902132524 64 146 3.0 7.0 0.00 0.03 0.01 84 1024.3
20260902132013 64 88 2.0 9.0 0.00 0.03 0.01 84 1024.3
20260902131521 64 141 4.0 9.0 0.00 0.03 0.01 84 1024.4
20260902131020 64 89 4.0 8.0 0.00 0.03 0.01 83 1024.4
20260902130512 64 134 4.0 8.0 0.00 0.03 0.01 83 1024.3
20260902130032 64 57 3.0 7.0 0.00 0.03 0.01 83 1024.3
20260902125531 64 61 2.0 7.0 0.00 0.03 0.01 84 1024.2
20260902125013 64 120 3.0 8.0 0.00 0.03 0.01 84 1024.1
20260902124520 64 56 3.0 9.0 0.00 0.03 0.01 84 1024.2
20260902124019 64 76 5.0 9.0 0.00 0.03 0.01 83 1024.1
20260902123512 64 131 2.0 8.0 0.01 0.03 0.01 84 1024.1
20260902123020 64 113 2.0 8.0 0.01 0.03 0.01 84 1024.1
20260902122519 64 285 3.0 10.0 0.01 0.03 0.01 83 1024.0
20260902122013 64 24 3.0 10.0 0.01 0.03 0.01 84 1024.2
20260902121521 63 100 2.0 7.0 0.01 0.03 0.01 84 1024.1
20260902121030 63 104 2.0 6.0 0.01 0.03 0.01 85 1024.1
20260902120513 63 91 2.0 7.0 0.01 0.03 0.01 86 1024.0
20260902120021 63 63 2.0 7.0 0.01 0.03 0.01 86 1023.9
20260902115520 62 11 2.0 7.0 0.01 0.03 0.01 86 1024.0
20260902115013 62 32 3.0 6.0 0.01 0.03 0.01 86 1023.9
20260902114521 62 103 2.0 7.0 0.01 0.03 0.01 87 1024.0
20260902114020 62 113 3.0 7.0 0.00 0.02 0.00 87 1023.9
20260902113513 62 82 3.0 7.0 0.00 0.02 0.00 86 1023.9
20260902113020 62 66 2.0 6.0 0.00 0.02 0.00 87 1023.9
20260902112530 62 52 1.0 5.0 0.00 0.02 0.00 87 1024.0
20260902112014 62 99 0.0 4.0 0.00 0.02 0.00 88 1024.0
20260902111521 61 65 1.0 4.0 0.00 0.02 0.00 88 1024.0
20260902111019 61 70 1.0 4.0 0.00 0.02 0.00 89 1023.9
20260902110513 61 41 1.0 4.0 0.00 0.02 0.00 89 1023.9
20260902110021 60 86 1.0 4.0 0.00 0.02 0.00 89 1023.9
20260902105531 60 44 1.0 4.0 0.00 0.02 0.00 90 1023.9
20260902105013 59 72 1.0 5.0 0.00 0.02 0.00 90 1023.8
20260902104521 59 29 2.0 5.0 0.00 0.02 0.00 90 1023.8
20260902104031 59 334 2.0 3.0 0.00 0.02 0.00 91 1023.8
20260902103525 59 56 1.0 2.0 0.00 0.02 0.00 91 1023.9
20260902103020 58 16 0.0 2.0 0.00 0.02 0.00 91 1023.8
20260902102531 58 78 0.0 2.0 0.00 0.02 0.00 92 1023.7
20260902102024 58 339 1.0 2.0 0.00 0.02 0.00 92 1023.7
20260902101521 57 42 1.0 2.0 0.00 0.02 0.00 92 1023.7
20260902101019 57 39 0.0 1.0 0.00 0.02 0.00 92 1023.6
20260902100513 57 340 0.0 2.0 0.00 0.02 0.00 92 1023.5
20260902100021 57 339 1.0 3.0 0.00 0.02 0.00 92 1023.5
20260902095519 57 20 1.0 3.0 0.00 0.02 0.00 92 1023.5
20260902095014 57 90 0.0 2.0 0.00 0.02 0.00 92 1023.4
20260902094532 57 61 0.0 4.0 0.00 0.02 0.00 92 1023.2
20260902094031 57 49 1.0 4.0 0.00 0.02 0.00 92 1023.2
20260902093524 57 35 1.0 3.0 0.00 0.02 0.00 92 1023.2
20260902093021 57 2 1.0 3.0 0.00 0.02 0.00 92 1023.3
20260902092519 57 346 1.0 4.0 0.00 0.02 0.00 92 1023.2
20260902092014 57 55 1.0 5.0 0.00 0.02 0.00 92 1023.2
20260902091532 57 314 1.0 5.0 0.00 0.02 0.00 92 1023.2
20260902091020 57 311 1.0 5.0 0.00 0.02 0.00 92 1023.1
20260902090515 57 340 2.0 6.0 0.00 0.02 0.00 92 1023.1
20260902090021 57 304 1.0 7.0 0.00 0.02 0.00 92 1023.0
20260902085522 57 30 3.0 7.0 0.00 0.02 0.00 92 1023.0
20260902085024 57 44 1.0 4.0 0.00 0.02 0.00 92 1023.0
20260902084520 57 333 2.0 4.0 0.00 0.02 0.00 92 1023.1
20260902084024 57 333 1.0 4.0 0.00 0.02 0.00 91 1023.0
20260902083513 57 300 1.0 4.0 0.00 0.02 0.00 91 1023.0
20260902083021 57 80 2.0 4.0 0.00 0.02 0.00 91 1022.9
20260902082531 57 302 0.0 4.0 0.00 0.02 0.00 91 1022.9
20260902082014 58 51 1.0 4.0 0.00 0.02 0.00 91 1022.9
20260902081521 58 34 1.0 4.0 0.00 0.02 0.00 90 1022.8
20260902081020 58 36 2.0 3.0 0.00 0.02 0.00 90 1022.9
20260902080513 58 5 1.0 5.0 0.00 0.02 0.00 90 1022.7
20260902080020 58 31 2.0 5.0 0.00 0.02 0.00 90 1022.8
20260902075520 58 302 1.0 4.0 0.00 0.02 0.00 91 1022.7
20260902075013 58 74 1.0 3.0 0.00 0.02 0.00 91 1022.7
20260902074521 58 58 1.0 2.0 0.00 0.02 0.00 90 1022.8
20260902074031 58 321 0.0 3.0 0.00 0.02 0.00 90 1022.7
20260902073513 58 332 1.0 4.0 0.00 0.02 0.00 91 1022.7
20260902073032 58 297 1.0 4.0 0.00 0.02 0.00 91 1022.6
20260902072520 58 336 1.0 2.0 0.00 0.02 0.00 91 1022.6
20260902072013 57 15 0.0 2.0 0.00 0.02 0.00 91 1022.6
20260902071521 57 23 1.0 2.0 0.00 0.02 0.00 91 1022.6
20260902071020 57 9 0.0 2.0 0.00 0.02 0.00 91 1022.5
20260902070513 57 40 1.0 3.0 0.00 0.02 0.00 91 1022.5
20260902070033 57 22 1.0 3.0 0.00 0.02 0.00 91 1022.4
20260902065520 57 53 1.0 3.0 0.00 0.02 0.00 91 1022.4
20260902065013 57 13 1.0 3.0 0.00 0.02 0.00 91 1022.3
20260902064521 57 60 0.0 3.0 0.00 0.02 0.00 91 1022.3
20260902064020 57 28 1.0 3.0 0.00 0.02 0.00 91 1022.2
20260902063513 57 4 1.0 4.0 0.00 0.02 0.00 91 1022.2
20260902063020 57 14 2.0 4.0 0.00 0.02 0.00 91 1022.2
20260902062531 57 31 2.0 4.0 0.00 0.02 0.00 92 1022.1
20260902062013 57 337 1.0 3.0 0.00 0.02 0.00 91 1022.2
20260902061521 57 25 2.0 3.0 0.00 0.02 0.00 91 1022.1
20260902061023 57 354 1.0 3.0 0.00 0.02 0.00 91 1022.1
20260902060513 57 341 1.0 4.0 0.00 0.02 0.00 91 1022.1
20260902060020 57 13 1.0 4.0 0.00 0.02 0.00 91 1022.1
20260902055530 57 317 2.0 4.0 0.00 0.02 0.00 92 1022.0
20260902055013 57 13 1.0 3.0 0.00 0.02 0.00 92 1022.1
20260902054521 57 334 1.0 3.0 0.00 0.02 0.00 92 1022.0
20260902054032 57 354 1.0 5.0 0.00 0.02 0.00 92 1021.9
20260902053524 57 75 2.0 5.0 0.00 0.02 0.00 92 1021.9
20260902053022 57 57 2.0 5.0 0.00 0.02 0.00 92 1021.9
20260902052520 57 8 1.0 4.0 0.00 0.02 0.00 92 1021.8
20260902052013 57 41 2.0 4.0 0.00 0.02 0.00 92 1021.9
20260902051521 57 9 2.0 4.0 0.00 0.02 0.00 93 1021.8
20260902051021 57 356 1.0 2.0 0.00 0.02 0.00 93 1022.0
20260902050526 57 342 0.0 3.0 0.00 0.02 0.00 93 1022.0
20260902050033 57 333 1.0 3.0 0.00 0.02 0.00 93 1022.1
20260902045519 57 40 0.0 3.0 0.00 0.02 0.00 93 1022.0
20260902045014 57 4 1.0 4.0 0.00 0.02 0.00 93 1022.0
20260902044521 57 353 2.0 4.0 0.00 0.02 0.00 93 1022.0
20260902044020 57 21 2.0 3.0 0.00 0.02 0.00 93 1021.9
20260902043514 57 356 0.0 3.0 0.00 0.02 0.00 93 1022.0
20260902043021 57 22 0.0 3.0 0.00 0.02 0.00 93 1021.9
20260902042520 57 37 1.0 4.0 0.00 0.02 0.00 93 1021.9
20260902042015 57 37 1.0 2.0 0.00 0.02 0.00 93 1021.9
20260902041532 57 18 1.0 2.0 0.00 0.02 0.00 93 1021.8
20260902041019 57 29 0.0 2.0 0.00 0.02 0.00 93 1021.9
20260902040514 57 29 1.0 2.0 0.00 0.02 0.00 93 1021.8
20260902040022 58 53 0.0 1.0 0.00 0.02 0.00 93 1021.8
20260902035531 58 75 1.0 2.0 0.00 0.02 0.00 93 1021.8
20260902035013 58 80 1.0 3.0 0.00 0.02 0.00 93 1021.7
20260902034521 58 29 1.0 3.0 0.00 0.02 0.00 93 1021.7
20260902034018 58 37 1.0 3.0 0.00 0.02 0.00 93 1021.7
20260902033515 58 338 0.0 2.0 0.00 0.02 0.00 93 1021.7
20260902033021 58 17 1.0 2.0 0.00 0.02 0.00 93 1021.6
20260902032520 58 307 0.0 1.0 0.00 0.02 0.00 93 1021.7
20260902032025 58 32 0.0 1.0 0.00 0.02 0.00 92 1021.7
20260902031522 58 52 0.0 1.0 0.00 0.02 0.00 92 1021.7
20260902031018 58 3 0.0 1.0 0.00 0.02 0.00 92 1021.8
20260902030514 58 3 0.0 1.0 0.00 0.02 0.00 92 1021.7
20260902030021 58 3 0.0 0.0 0.00 0.02 0.00 92 1021.6
20260902025520 58 3 0.0 1.0 0.00 0.02 0.02 92 1021.6
20260902025015 59 3 0.0 2.0 0.00 0.02 0.02 92 1021.5
20260902024532 59 343 1.0 3.0 0.00 0.02 0.02 92 1021.6
20260902024020 59 55 1.0 3.0 0.00 0.02 0.02 92 1021.5
20260902023514 59 25 1.0 3.0 0.00 0.02 0.02 92 1021.5
20260902023022 59 350 1.0 3.0 0.00 0.02 0.02 92 1021.6
20260902022518 59 346 1.0 3.0 0.00 0.02 0.02 92 1021.5